When you browse on this site, cookies collect data to enhance your experience and personalize the content and advertising you see.
Visit our Privacy Policy to learn more. By continuing to use the site, you agree to this use of cookies and data.
  • în România
  • Lista ţărilor
  • Pe 7 zile
  • Temperatura apei
  • Meteo pe hartă
  • Widget-uri
  • user-avatar
    Intrare

    Meteo pe oră la Banfora

    Astăzi, 6 Iunie, Sâmbătă

    Timp Temperatura Precipitaţii Vânt Presiune Umiditate
    00:00 +28°C° 0 mm 2 m/s 735 mmHg 79%
    01:00 +27°C° 0.5 mm 2 m/s 735 mmHg 81%
    02:00 +27°C° 0.5 mm 2 m/s 735 mmHg 84%
    03:00 +26°C° 0.5 mm 1 m/s 735 mmHg 86%
    04:00 +26°C° 0.6 mm 1 m/s 735 mmHg 86%
    05:00 +26°C° 0.6 mm 1 m/s 735 mmHg 86%
    06:00 +26°C° 0.6 mm 1 m/s 735 mmHg 87%
    07:00 +27°C° 0 mm 2 m/s 735 mmHg 81%
    08:00 +29°C° 0 mm 2 m/s 735 mmHg 76%
    09:00 +30°C° 0 mm 2 m/s 735 mmHg 71%
    10:00 +32°C° 0 mm 2 m/s 735 mmHg 63%
    11:00 +35°C° 0 mm 2 m/s 734 mmHg 55%
    12:00 +37°C° 0 mm 2 m/s 734 mmHg 46%
    13:00 +38°C° 0 mm 2 m/s 734 mmHg 43%
    14:00 +39°C° 0 mm 2 m/s 733 mmHg 39%
    15:00 +40°C° 0 mm 1 m/s 732 mmHg 35%
    16:00 +37°C° 0 mm 1 m/s 732 mmHg 38%
    17:00 +36°C° 0 mm 1 m/s 732 mmHg 41%
    18:00 +35°C° 0 mm 1 m/s 732 mmHg 44%
    19:00 +34°C° 0 mm 1 m/s 732 mmHg 46%
    20:00 +31°C° 0 mm 0 m/s 733 mmHg 47%
    21:00 +30°C° 0 mm 0 m/s 733 mmHg 49%
    22:00 +31°C° 0 mm 1 m/s 734 mmHg 52%
    23:00 +31°C° 0 mm 1 m/s 734 mmHg 55%

    Mâine, 7 Iunie, Duminică

    Timp Temperatura Precipitaţii Vânt Presiune Umiditate
    00:00 +30°C° 0 mm 1 m/s 734 mmHg 58%
    01:00 +29°C° 1.1 mm 1 m/s 734 mmHg 67%
    02:00 +28°C° 1.1 mm 2 m/s 734 mmHg 75%
    03:00 +27°C° 1.1 mm 2 m/s 733 mmHg 84%
    04:00 +27°C° 1.8 mm 2 m/s 734 mmHg 86%
    05:00 +27°C° 1.8 mm 2 m/s 734 mmHg 87%
    06:00 +27°C° 1.8 mm 2 m/s 735 mmHg 89%
    07:00 +27°C° 0.9 mm 2 m/s 735 mmHg 87%
    08:00 +27°C° 0.9 mm 2 m/s 735 mmHg 86%
    09:00 +27°C° 0.9 mm 2 m/s 736 mmHg 84%
    10:00 +29°C° 0 mm 2 m/s 735 mmHg 75%
    11:00 +31°C° 0 mm 2 m/s 735 mmHg 66%
    12:00 +34°C° 0 mm 2 m/s 735 mmHg 56%
    13:00 +35°C° 0 mm 2 m/s 735 mmHg 53%
    14:00 +36°C° 0 mm 3 m/s 734 mmHg 49%
    15:00 +37°C° 0 mm 3 m/s 733 mmHg 45%
    16:00 +36°C° 0 mm 3 m/s 733 mmHg 51%
    17:00 +34°C° 0 mm 2 m/s 733 mmHg 56%
    18:00 +32°C° 0 mm 1 m/s 732 mmHg 62%
    19:00 +31°C° 0 mm 1 m/s 732 mmHg 65%
    20:00 +30°C° 0 mm 1 m/s 733 mmHg 69%
    21:00 +29°C° 0 mm 1 m/s 733 mmHg 72%
    22:00 +29°C° 0 mm 1 m/s 733 mmHg 72%
    23:00 +29°C° 0 mm 1 m/s 733 mmHg 72%

    Poimâine, 8 Iunie, Luni

    Timp Temperatura Precipitaţii Vânt Presiune Umiditate
    00:00 +28°C° 0 mm 1 m/s 733 mmHg 72%
    01:00 +28°C° 0 mm 1 m/s 733 mmHg 75%
    02:00 +28°C° 0 mm 1 m/s 733 mmHg 77%
    03:00 +27°C° 0 mm 1 m/s 733 mmHg 79%
    04:00 +27°C° 0 mm 2 m/s 733 mmHg 82%
    05:00 +27°C° 0 mm 2 m/s 733 mmHg 84%
    06:00 +26°C° 0 mm 2 m/s 734 mmHg 86%
    07:00 +28°C° 0 mm 2 m/s 734 mmHg 80%
    08:00 +29°C° 0 mm 2 m/s 734 mmHg 73%
    09:00 +30°C° 0 mm 3 m/s 735 mmHg 67%
    10:00 +33°C° 0 mm 3 m/s 734 mmHg 60%
    11:00 +34°C° 0 mm 2 m/s 734 mmHg 54%
    12:00 +36°C° 0 mm 2 m/s 733 mmHg 48%
    13:00 +37°C° 0 mm 2 m/s 733 mmHg 44%
    14:00 +37°C° 0 mm 1 m/s 732 mmHg 41%
    15:00 +40°C° 0 mm 1 m/s 732 mmHg 37%
    16:00 +37°C° 0 mm 1 m/s 731 mmHg 40%
    17:00 +36°C° 0 mm 1 m/s 731 mmHg 43%
    18:00 +35°C° 0 mm 1 m/s 731 mmHg 46%
    19:00 +34°C° 0.2 mm 1 m/s 731 mmHg 48%
    20:00 +33°C° 0.2 mm 1 m/s 732 mmHg 50%
    21:00 +30°C° 0.2 mm 0 m/s 732 mmHg 53%
    22:00 +31°C° 0.2 mm 1 m/s 732 mmHg 57%
    23:00 +30°C° 0.2 mm 1 m/s 732 mmHg 62%

    9 Iunie, Marţi

    Timp Temperatura Precipitaţii Vânt Presiune Umiditate
    00:00 +29°C° 0.2 mm 1 m/s 732 mmHg 67%
    01:00 +29°C° 0.1 mm 2 m/s 732 mmHg 70%
    02:00 +28°C° 0.1 mm 2 m/s 732 mmHg 72%
    03:00 +28°C° 0.1 mm 2 m/s 732 mmHg 75%
    04:00 +27°C° 0.6 mm 2 m/s 732 mmHg 80%
    05:00 +26°C° 0.6 mm 2 m/s 733 mmHg 84%
    06:00 +26°C° 0.6 mm 2 m/s 733 mmHg 88%
    07:00 +27°C° 0.1 mm 3 m/s 733 mmHg 83%
    08:00 +28°C° 0.1 mm 3 m/s 734 mmHg 79%
    09:00 +29°C° 0.1 mm 3 m/s 734 mmHg 74%
    10:00 +31°C° 0 mm 3 m/s 734 mmHg 66%
    11:00 +34°C° 0 mm 3 m/s 734 mmHg 58%
    12:00 +36°C° 0 mm 3 m/s 733 mmHg 51%
    13:00 +37°C° 0 mm 2 m/s 733 mmHg 47%
    14:00 +37°C° 0 mm 2 m/s 732 mmHg 43%
    15:00 +37°C° 0 mm 1 m/s 732 mmHg 40%
    16:00 +36°C° 0.8 mm 3 m/s 731 mmHg 47%
    17:00 +34°C° 0.8 mm 4 m/s 731 mmHg 53%
    18:00 +32°C° 0.8 mm 5 m/s 731 mmHg 60%
    19:00 +29°C° 5.9 mm 4 m/s 732 mmHg 68%
    20:00 +26°C° 5.9 mm 3 m/s 732 mmHg 76%
    21:00 +24°C° 5.9 mm 2 m/s 733 mmHg 84%
    22:00 +24°C° 0 mm 1 m/s 733 mmHg 84%
    23:00 +25°C° 0 mm 1 m/s 733 mmHg 84%

    10 Iunie, Miercuri

    Timp Temperatura Precipitaţii Vânt Presiune Umiditate
    00:00 +25°C° 0 mm 1 m/s 733 mmHg 84%
    01:00 +25°C° 0 mm 1 m/s 733 mmHg 85%
    02:00 +25°C° 0 mm 1 m/s 733 mmHg 85%
    03:00 +25°C° 0 mm 1 m/s 732 mmHg 85%
    04:00 +24°C° 0 mm 1 m/s 733 mmHg 86%
    05:00 +24°C° 0 mm 1 m/s 733 mmHg 87%
    06:00 +24°C° 0 mm 1 m/s 733 mmHg 88%
    07:00 +25°C° 0 mm 2 m/s 734 mmHg 83%
    08:00 +27°C° 0 mm 2 m/s 734 mmHg 78%
    09:00 +28°C° 0 mm 2 m/s 734 mmHg 73%
    10:00 +30°C° 0 mm 2 m/s 734 mmHg 66%
    11:00 +32°C° 0 mm 2 m/s 734 mmHg 60%
    12:00 +34°C° 0 mm 2 m/s 733 mmHg 54%
    13:00 +35°C° 0 mm 2 m/s 733 mmHg 51%
    14:00 +36°C° 0 mm 2 m/s 733 mmHg 47%
    15:00 +37°C° 0 mm 2 m/s 732 mmHg 44%
    16:00 +35°C° 0 mm 1 m/s 732 mmHg 48%
    17:00 +34°C° 0 mm 1 m/s 732 mmHg 52%
    18:00 +33°C° 0 mm 1 m/s 732 mmHg 57%
    19:00 +32°C° 0 mm 2 m/s 732 mmHg 61%
    20:00 +31°C° 0 mm 2 m/s 733 mmHg 66%
    21:00 +30°C° 0 mm 2 m/s 734 mmHg 70%
    22:00 +29°C° 0.2 mm 2 m/s 734 mmHg 72%
    23:00 +28°C° 0.2 mm 2 m/s 734 mmHg 75%

    11 Iunie, Joi

    Timp Temperatura Precipitaţii Vânt Presiune Umiditate
    00:00 +28°C° 0.2 mm 1 m/s 734 mmHg 77%
    01:00 +28°C° 0.1 mm 1 m/s 734 mmHg 80%
    02:00 +27°C° 0.1 mm 1 m/s 733 mmHg 83%
    03:00 +27°C° 0.1 mm 2 m/s 733 mmHg 85%
    04:00 +26°C° 0 mm 2 m/s 733 mmHg 87%
    05:00 +26°C° 0 mm 2 m/s 734 mmHg 89%
    06:00 +26°C° 0 mm 2 m/s 734 mmHg 91%
    07:00 +27°C° 0 mm 2 m/s 734 mmHg 85%
    08:00 +28°C° 0 mm 2 m/s 735 mmHg 80%
    09:00 +29°C° 0 mm 2 m/s 735 mmHg 74%
    10:00 +32°C° 0 mm 2 m/s 735 mmHg 66%
    11:00 +35°C° 0 mm 2 m/s 734 mmHg 58%
    12:00 +37°C° 0 mm 2 m/s 734 mmHg 49%
    13:00 +37°C° 0 mm 1 m/s 733 mmHg 45%
    14:00 +39°C° 0 mm 1 m/s 733 mmHg 41%
    15:00 +39°C° 0 mm 1 m/s 732 mmHg 37%
    16:00 +37°C° 0 mm 1 m/s 732 mmHg 40%
    17:00 +36°C° 0 mm 1 m/s 732 mmHg 44%
    18:00 +35°C° 0 mm 1 m/s 731 mmHg 47%
    19:00 +34°C° 0.1 mm 1 m/s 732 mmHg 51%
    20:00 +32°C° 0.1 mm 1 m/s 732 mmHg 55%
    21:00 +29°C° 0.1 mm 0 m/s 733 mmHg 58%
    22:00 +30°C° 0.1 mm 1 m/s 733 mmHg 62%
    23:00 +30°C° 0.1 mm 1 m/s 733 mmHg 65%
    Arată mai mult